"Datum/tijd (MEZT)";"verwachting, vectrale stroom km/u"
2024-05-08 13:00;1.368
2024-05-08 13:10;1.404
2024-05-08 13:20;1.404
2024-05-08 13:30;1.44
2024-05-08 13:40;1.44
2024-05-08 13:50;1.44
2024-05-08 14:00;1.476
2024-05-08 14:10;1.476
2024-05-08 14:20;1.476
2024-05-08 14:30;1.476
2024-05-08 14:40;1.476
2024-05-08 14:50;1.512
2024-05-08 15:00;1.512
2024-05-08 15:10;1.512
2024-05-08 15:20;1.476
2024-05-08 15:30;1.476
2024-05-08 15:40;1.476
2024-05-08 15:50;1.476
2024-05-08 16:00;1.476
2024-05-08 16:10;1.476
2024-05-08 16:20;1.44
2024-05-08 16:30;1.404
2024-05-08 16:40;1.368
2024-05-08 16:50;1.332
2024-05-08 17:00;1.26
2024-05-08 17:10;1.188
2024-05-08 17:20;1.08
2024-05-08 17:30;0.972
2024-05-08 17:40;0.9
2024-05-08 17:50;0.828
2024-05-08 18:00;0.756
2024-05-08 18:10;0.684
2024-05-08 18:20;0.648
2024-05-08 18:30;0.576
2024-05-08 18:40;0.54
2024-05-08 18:50;0.54
2024-05-08 19:00;0.504
2024-05-08 19:10;0.504
2024-05-08 19:20;0.504
2024-05-08 19:30;0.504
2024-05-08 19:40;0.54
2024-05-08 19:50;0.54
2024-05-08 20:00;0.288
2024-05-08 20:10;0.288
2024-05-08 20:20;0.324
2024-05-08 20:30;0.324
2024-05-08 20:40;0.324
2024-05-08 20:50;0.324
2024-05-08 21:00;0.36
2024-05-08 21:10;0.396
2024-05-08 21:20;0.432
2024-05-08 21:30;0.504
2024-05-08 21:40;0.576
2024-05-08 21:50;0.648
2024-05-08 22:00;0.684
2024-05-08 22:10;0.756
2024-05-08 22:20;0.828
2024-05-08 22:30;0.864
2024-05-08 22:40;0.936
2024-05-08 22:50;0.972
2024-05-08 23:00;1.044
2024-05-08 23:10;1.08
2024-05-08 23:20;1.116
2024-05-08 23:30;1.116
2024-05-08 23:40;1.152
2024-05-08 23:50;1.152
2024-05-09 00:00;1.188
2024-05-09 00:10;1.188
2024-05-09 00:20;1.188
2024-05-09 00:30;1.224
2024-05-09 00:40;1.224
2024-05-09 00:50;1.224
2024-05-09 01:00;1.224
2024-05-09 01:10;1.26
2024-05-09 01:20;1.26
2024-05-09 01:30;1.26
2024-05-09 01:40;1.296
2024-05-09 01:50;1.296
2024-05-09 02:00;1.404
2024-05-09 02:10;1.44
2024-05-09 02:20;1.44
2024-05-09 02:30;1.476
2024-05-09 02:40;1.476
2024-05-09 02:50;1.476
2024-05-09 03:00;1.476
2024-05-09 03:10;1.512
2024-05-09 03:20;1.512
2024-05-09 03:30;1.512
2024-05-09 03:40;1.512
2024-05-09 03:50;1.512
2024-05-09 04:00;1.512
2024-05-09 04:10;1.476
2024-05-09 04:20;1.476
2024-05-09 04:30;1.476
2024-05-09 04:40;1.44
2024-05-09 04:50;1.44
2024-05-09 05:00;1.404
2024-05-09 05:10;1.332
2024-05-09 05:20;1.296
2024-05-09 05:30;1.224
2024-05-09 05:40;1.116
2024-05-09 05:50;1.044
2024-05-09 06:00;0.936
2024-05-09 06:10;0.864
2024-05-09 06:20;0.792
2024-05-09 06:30;0.72
2024-05-09 06:40;0.648
2024-05-09 06:50;0.612
2024-05-09 07:00;0.576
2024-05-09 07:10;0.54
2024-05-09 07:20;0.54
2024-05-09 07:30;0.504
2024-05-09 07:40;0.504
2024-05-09 07:50;0.504
2024-05-09 08:00;0.468
2024-05-09 08:10;0.468
2024-05-09 08:20;0.468
2024-05-09 08:30;0.468
2024-05-09 08:40;0.468
2024-05-09 08:50;0.468
2024-05-09 09:00;0.504
2024-05-09 09:10;0.504
2024-05-09 09:20;0.54
2024-05-09 09:30;0.576
2024-05-09 09:40;0.612
2024-05-09 09:50;0.684
2024-05-09 10:00;0.72
2024-05-09 10:10;0.792
2024-05-09 10:20;0.828
2024-05-09 10:30;0.9
2024-05-09 10:40;0.936
2024-05-09 10:50;0.972
2024-05-09 11:00;1.044
2024-05-09 11:10;1.08
2024-05-09 11:20;1.116
2024-05-09 11:30;1.116
2024-05-09 11:40;1.152
2024-05-09 11:50;1.188
2024-05-09 12:00;1.188
2024-05-09 12:10;1.224
2024-05-09 12:20;1.224
2024-05-09 12:30;1.26
2024-05-09 12:40;1.26
2024-05-09 12:50;1.26
2024-05-09 13:00;1.26
2024-05-09 13:10;1.26
2024-05-09 13:20;1.26
2024-05-09 13:30;1.296
2024-05-09 13:40;1.296
2024-05-09 13:50;1.296
2024-05-09 14:00;1.332
2024-05-09 14:10;1.332
2024-05-09 14:20;1.368
2024-05-09 14:30;1.368
2024-05-09 14:40;1.368
2024-05-09 14:50;1.404
2024-05-09 15:00;1.404
2024-05-09 15:10;1.404
2024-05-09 15:20;1.44
2024-05-09 15:30;1.44
2024-05-09 15:40;1.44
2024-05-09 15:50;1.44
2024-05-09 16:00;1.44
2024-05-09 16:10;1.44
2024-05-09 16:20;1.44
2024-05-09 16:30;1.44
2024-05-09 16:40;1.404
2024-05-09 16:50;1.404
2024-05-09 17:00;1.368
2024-05-09 17:10;1.332
2024-05-09 17:20;1.296
2024-05-09 17:30;1.224
2024-05-09 17:40;1.116
2024-05-09 17:50;1.044
2024-05-09 18:00;0.9
2024-05-09 18:10;0.792
2024-05-09 18:20;0.72
2024-05-09 18:30;0.648
2024-05-09 18:40;0.576
2024-05-09 18:50;0.504
2024-05-09 19:00;0.468
2024-05-09 19:10;0.396
2024-05-09 19:20;0.36
2024-05-09 19:30;0.324
2024-05-09 19:40;0.288
2024-05-09 19:50;0.288
2024-05-09 20:00;0.18
2024-05-09 20:10;0.18
2024-05-09 20:20;0.144
2024-05-09 20:30;0.144
2024-05-09 20:40;0.144
2024-05-09 20:50;0.108
2024-05-09 21:00;0.108
2024-05-09 21:10;0.072
2024-05-09 21:20;0.072
2024-05-09 21:30;0.036
2024-05-09 21:40;0.036
2024-05-09 21:50;0.036
2024-05-09 22:00;0.072
2024-05-09 22:10;0.108
2024-05-09 22:20;0.18
2024-05-09 22:30;0.288
2024-05-09 22:40;0.36
2024-05-09 22:50;0.468
2024-05-09 23:00;0.54
2024-05-09 23:10;0.612
2024-05-09 23:20;0.72
2024-05-09 23:30;0.792
2024-05-09 23:40;0.864
2024-05-09 23:50;0.936
2024-05-10 00:00;0.972
2024-05-10 00:10;1.044
2024-05-10 00:20;1.08
2024-05-10 00:30;1.08
2024-05-10 00:40;1.116
2024-05-10 00:50;1.152
2024-05-10 01:00;1.152
2024-05-10 01:10;1.152
2024-05-10 01:20;1.152
2024-05-10 01:30;1.188
2024-05-10 01:40;1.188
2024-05-10 01:50;1.188
2024-05-10 02:00;1.188
2024-05-10 02:10;1.224
2024-05-10 02:20;1.224
2024-05-10 02:30;1.26
2024-05-10 02:40;1.26
2024-05-10 02:50;1.296
2024-05-10 03:00;1.296
2024-05-10 03:10;1.296
2024-05-10 03:20;1.332
2024-05-10 03:30;1.332
2024-05-10 03:40;1.332
2024-05-10 03:50;1.368
2024-05-10 04:00;1.368
2024-05-10 04:10;1.368
2024-05-10 04:20;1.368
2024-05-10 04:30;1.368
2024-05-10 04:40;1.368
2024-05-10 04:50;1.332
2024-05-10 05:00;1.332
2024-05-10 05:10;1.296
2024-05-10 05:20;1.26
2024-05-10 05:30;1.188
2024-05-10 05:40;1.152
2024-05-10 05:50;1.044
2024-05-10 06:00;0.972
2024-05-10 06:10;0.864
2024-05-10 06:20;0.756
2024-05-10 06:30;0.684
2024-05-10 06:40;0.612
2024-05-10 06:50;0.54
2024-05-10 07:00;0.468
2024-05-10 07:10;0.432
2024-05-10 07:20;0.36
2024-05-10 07:30;0.324
2024-05-10 07:40;0.288
2024-05-10 07:50;0.252
2024-05-10 08:00;0.216
2024-05-10 08:10;0.216
2024-05-10 08:20;0.18
2024-05-10 08:30;0.18
2024-05-10 08:40;0.18
2024-05-10 08:50;0.18
2024-05-10 09:00;0.18
2024-05-10 09:10;0.144
2024-05-10 09:20;0.144
2024-05-10 09:30;0.144
2024-05-10 09:40;0.144
2024-05-10 09:50;0.144
2024-05-10 10:00;0.144
2024-05-10 10:10;0.18
2024-05-10 10:20;0.216
2024-05-10 10:30;0.288
2024-05-10 10:40;0.36
2024-05-10 10:50;0.432
2024-05-10 11:00;0.504
2024-05-10 11:10;0.576
2024-05-10 11:20;0.684
2024-05-10 11:30;0.756
2024-05-10 11:40;0.828
2024-05-10 11:50;0.864
2024-05-10 12:00;0.936
2024-05-10 12:10;1.008
2024-05-10 12:20;1.044
2024-05-10 12:30;1.08
2024-05-10 12:40;1.116
2024-05-10 12:50;1.152
2024-05-10 13:00;1.152
2024-05-10 13:10;1.188
2024-05-10 13:20;1.188
2024-05-10 13:30;1.224
2024-05-10 13:40;1.224
2024-05-10 13:50;1.224
2024-05-10 14:00;1.26
2024-05-10 14:10;1.26
2024-05-10 14:20;1.26
2024-05-10 14:30;1.296
2024-05-10 14:40;1.296
2024-05-10 14:50;1.296
2024-05-10 15:00;1.332
2024-05-10 15:10;1.332
2024-05-10 15:20;1.368
2024-05-10 15:30;1.368
2024-05-10 15:40;1.368
2024-05-10 15:50;1.368
2024-05-10 16:00;1.404
2024-05-10 16:10;1.404
2024-05-10 16:20;1.404
2024-05-10 16:30;1.404
2024-05-10 16:40;1.404
2024-05-10 16:50;1.404
2024-05-10 17:00;1.404
2024-05-10 17:10;1.404
2024-05-10 17:20;1.404
2024-05-10 17:30;1.404
2024-05-10 17:40;1.368
2024-05-10 17:50;1.368
2024-05-10 18:00;1.296
2024-05-10 18:10;1.26
2024-05-10 18:20;1.188
2024-05-10 18:30;1.08
2024-05-10 18:40;0.972
2024-05-10 18:50;0.864
2024-05-10 19:00;0.756
2024-05-10 19:10;0.684
2024-05-10 19:20;0.612
2024-05-10 19:30;0.54
2024-05-10 19:40;0.504
2024-05-10 19:50;0.432
2024-05-10 20:00;0.396
2024-05-10 20:10;0.36
2024-05-10 20:20;0.324
2024-05-10 20:30;0.324
2024-05-10 20:40;0.288
2024-05-10 20:50;0.288
2024-05-10 21:00;0.288
2024-05-10 21:10;0.288
2024-05-10 21:20;0.288
2024-05-10 21:30;0.324
2024-05-10 21:40;0.324
2024-05-10 21:50;0.324
2024-05-10 22:00;0.288
2024-05-10 22:10;0.288
2024-05-10 22:20;0.288
2024-05-10 22:30;0.324
2024-05-10 22:40;0.36
2024-05-10 22:50;0.396
2024-05-10 23:00;0.432
2024-05-10 23:10;0.504
2024-05-10 23:20;0.54
2024-05-10 23:30;0.612
2024-05-10 23:40;0.684
2024-05-10 23:50;0.72
2024-05-11 00:00;0.792
2024-05-11 00:10;0.828
2024-05-11 00:20;0.9
2024-05-11 00:30;0.936
2024-05-11 00:40;0.972
2024-05-11 00:50;1.008
2024-05-11 01:00;1.044
2024-05-11 01:10;1.044
2024-05-11 01:20;1.08
2024-05-11 01:30;1.08
2024-05-11 01:40;1.116
2024-05-11 01:50;1.116
2024-05-11 02:00;1.116
2024-05-11 02:10;1.116
2024-05-11 02:20;1.152
2024-05-11 02:30;1.152
2024-05-11 02:40;1.152
2024-05-11 02:50;1.188
2024-05-11 03:00;1.188
2024-05-11 03:10;1.224
2024-05-11 03:20;1.224
2024-05-11 03:30;1.224
2024-05-11 03:40;1.26
2024-05-11 03:50;1.26
2024-05-11 04:00;1.296
2024-05-11 04:10;1.296
2024-05-11 04:20;1.296
2024-05-11 04:30;1.296
2024-05-11 04:40;1.296
2024-05-11 04:50;1.332
2024-05-11 05:00;1.332
2024-05-11 05:10;1.296
2024-05-11 05:20;1.296
2024-05-11 05:30;1.296
2024-05-11 05:40;1.296
2024-05-11 05:50;1.26
2024-05-11 06:00;1.224
2024-05-11 06:10;1.188
2024-05-11 06:20;1.116
2024-05-11 06:30;1.044
2024-05-11 06:40;0.972
2024-05-11 06:50;0.864
2024-05-11 07:00;0.756
2024-05-11 07:10;0.648
2024-05-11 07:20;0.576
2024-05-11 07:30;0.504
2024-05-11 07:40;0.432
2024-05-11 07:50;0.396
2024-05-11 08:00;0.324
2024-05-11 08:10;0.288
2024-05-11 08:20;0.252
2024-05-11 08:30;0.18
2024-05-11 08:40;0.18
2024-05-11 08:50;0.144
2024-05-11 09:00;0.108
2024-05-11 09:10;0.108
2024-05-11 09:20;0.108
2024-05-11 09:30;0.108
2024-05-11 09:40;0.072
2024-05-11 09:50;0.072
2024-05-11 10:00;0.072
2024-05-11 10:10;0.036
2024-05-11 10:20;0.036
2024-05-11 10:30;0.036
2024-05-11 10:40;0.036
2024-05-11 10:50;0.036
2024-05-11 11:00;0.072
2024-05-11 11:10;0.108
2024-05-11 11:20;0.18
2024-05-11 11:30;0.252
2024-05-11 11:40;0.36
2024-05-11 11:50;0.432
2024-05-11 12:00;0.504
2024-05-11 12:10;0.612
2024-05-11 12:20;0.684
2024-05-11 12:30;0.756
2024-05-11 12:40;0.828
2024-05-11 12:50;0.9
2024-05-11 13:00;0.936
2024-05-11 13:10;1.008
2024-05-11 13:20;1.044
2024-05-11 13:30;1.044
2024-05-11 13:40;1.08
2024-05-11 13:50;1.116
2024-05-11 14:00;1.116
2024-05-11 14:10;1.152
2024-05-11 14:20;1.152
2024-05-11 14:30;1.152
2024-05-11 14:40;1.188
2024-05-11 14:50;1.188
2024-05-11 15:00;1.188
2024-05-11 15:10;1.224
2024-05-11 15:20;1.224
2024-05-11 15:30;1.224
2024-05-11 15:40;1.26
2024-05-11 15:50;1.26
2024-05-11 16:00;1.296
2024-05-11 16:10;1.296
2024-05-11 16:20;1.296
2024-05-11 16:30;1.332
2024-05-11 16:40;1.332
2024-05-11 16:50;1.332
2024-05-11 17:00;1.332
2024-05-11 17:10;1.332
2024-05-11 17:20;1.332
2024-05-11 17:30;1.332
2024-05-11 17:40;1.332
2024-05-11 17:50;1.332
2024-05-11 18:00;1.332
2024-05-11 18:10;1.332
2024-05-11 18:20;1.296
2024-05-11 18:30;1.26
2024-05-11 18:40;1.224
2024-05-11 18:50;1.152
2024-05-11 19:00;1.08
2024-05-11 19:10;1.008
2024-05-11 19:20;0.9
2024-05-11 19:30;0.792
2024-05-11 19:40;0.684
2024-05-11 19:50;0.612
2024-05-11 20:00;0.54
2024-05-11 20:10;0.468
2024-05-11 20:20;0.432
2024-05-11 20:30;0.36
2024-05-11 20:40;0.324
2024-05-11 20:50;0.288
2024-05-11 21:00;0.252
2024-05-11 21:10;0.216
2024-05-11 21:20;0.216
2024-05-11 21:30;0.18
2024-05-11 21:40;0.18
2024-05-11 21:50;0.18
2024-05-11 22:00;0.18
2024-05-11 22:10;0.18
2024-05-11 22:20;0.18
2024-05-11 22:30;0.18
2024-05-11 22:40;0.144
2024-05-11 22:50;0.144
2024-05-11 23:00;0.144
2024-05-11 23:10;0.18
2024-05-11 23:20;0.216
2024-05-11 23:30;0.252
2024-05-11 23:40;0.324
2024-05-11 23:50;0.36
2024-05-12 00:00;0.432
2024-05-12 00:10;0.504
2024-05-12 00:20;0.576
2024-05-12 00:30;0.648
2024-05-12 00:40;0.72
2024-05-12 00:50;0.792
2024-05-12 01:00;0.828
2024-05-12 01:10;0.9
2024-05-12 01:20;0.936
2024-05-12 01:30;0.972
2024-05-12 01:40;1.008
2024-05-12 01:50;1.044
2024-05-12 02:00;1.08
2024-05-12 02:10;1.08
2024-05-12 02:20;1.116
2024-05-12 02:30;1.116
2024-05-12 02:40;1.116
2024-05-12 02:50;1.152
2024-05-12 03:00;1.152
2024-05-12 03:10;1.152
2024-05-12 03:20;1.188
2024-05-12 03:30;1.188
2024-05-12 03:40;1.224
2024-05-12 03:50;1.224
2024-05-12 04:00;1.26
2024-05-12 04:10;1.26
2024-05-12 04:20;1.26
2024-05-12 04:30;1.296
2024-05-12 04:40;1.296
2024-05-12 04:50;1.296
2024-05-12 05:00;1.332
2024-05-12 05:10;1.332
2024-05-12 05:20;1.332
2024-05-12 05:30;1.332
2024-05-12 05:40;1.332
2024-05-12 05:50;1.332
2024-05-12 06:00;1.332
2024-05-12 06:10;1.296
2024-05-12 06:20;1.296
2024-05-12 06:30;1.26
2024-05-12 06:40;1.26
2024-05-12 06:50;1.188
2024-05-12 07:00;1.152
2024-05-12 07:10;1.08
2024-05-12 07:20;0.972
2024-05-12 07:30;0.864
2024-05-12 07:40;0.756
2024-05-12 07:50;0.684
2024-05-12 08:00;0.576
2024-05-12 08:10;0.504
2024-05-12 08:20;0.468
2024-05-12 08:30;0.396
2024-05-12 08:40;0.324
2024-05-12 08:50;0.288
2024-05-12 09:00;0.252
2024-05-12 09:10;0.216
2024-05-12 09:20;0.18
2024-05-12 09:30;0.144
2024-05-12 09:40;0.144
2024-05-12 09:50;0.108
2024-05-12 10:00;0.108
2024-05-12 10:10;0.108
2024-05-12 10:20;0.072
2024-05-12 10:30;0.072
2024-05-12 10:40;0.072
2024-05-12 10:50;0.036
2024-05-12 11:00;0.036
2024-05-12 11:10;0
2024-05-12 11:20;0
2024-05-12 11:30;0
2024-05-12 11:40;0
2024-05-12 11:50;0.036
2024-05-12 12:00;0.072
2024-05-12 12:10;0.144
2024-05-12 12:20;0.216
2024-05-12 12:30;0.288
2024-05-12 12:40;0.396
2024-05-12 12:50;0.468
2024-05-12 13:00;0.576
2024-05-12 13:10;0.648
2024-05-12 13:20;0.72
2024-05-12 13:30;0.792
2024-05-12 13:40;0.864
2024-05-12 13:50;0.9
2024-05-12 14:00;0.972
2024-05-12 14:10;1.008
2024-05-12 14:20;1.044
2024-05-12 14:30;1.08
2024-05-12 14:40;1.08
2024-05-12 14:50;1.116
2024-05-12 15:00;1.116
2024-05-12 15:10;1.152
2024-05-12 15:20;1.152
2024-05-12 15:30;1.152
2024-05-12 15:40;1.188
2024-05-12 15:50;1.188
2024-05-12 16:00;1.224
2024-05-12 16:10;1.224
2024-05-12 16:20;1.224
2024-05-12 16:30;1.26
2024-05-12 16:40;1.26
2024-05-12 16:50;1.296
2024-05-12 17:00;1.296
2024-05-12 17:10;1.296
2024-05-12 17:20;1.296
2024-05-12 17:30;1.332
2024-05-12 17:40;1.332
2024-05-12 17:50;1.332
2024-05-12 18:00;1.332
2024-05-12 18:10;1.332
2024-05-12 18:20;1.332
2024-05-12 18:30;1.332
2024-05-12 18:40;1.296
2024-05-12 18:50;1.296
2024-05-12 19:00;1.26
2024-05-12 19:10;1.26
2024-05-12 19:20;1.224
2024-05-12 19:30;1.152
2024-05-12 19:40;1.08
2024-05-12 19:50;1.008
2024-05-12 20:00;0.936
2024-05-12 20:10;0.828
2024-05-12 20:20;0.72
2024-05-12 20:30;0.648
2024-05-12 20:40;0.576
2024-05-12 20:50;0.504
2024-05-12 21:00;0.432
2024-05-12 21:10;0.396
2024-05-12 21:20;0.324
2024-05-12 21:30;0.288
2024-05-12 21:40;0.252
2024-05-12 21:50;0.216
2024-05-12 22:00;0.216
2024-05-12 22:10;0.18
2024-05-12 22:20;0.18
2024-05-12 22:30;0.18
2024-05-12 22:40;0.18
2024-05-12 22:50;0.18
2024-05-12 23:00;0.18
2024-05-12 23:10;0.18
2024-05-12 23:20;0.18
2024-05-12 23:30;0.18
2024-05-12 23:40;0.18
2024-05-12 23:50;0.216
2024-05-13 00:00;0.252
2024-05-13 00:10;0.288
2024-05-13 00:20;0.324
2024-05-13 00:30;0.396
2024-05-13 00:40;0.432
2024-05-13 00:50;0.504
2024-05-13 01:00;0.576
2024-05-13 01:10;0.612
2024-05-13 01:20;0.684
2024-05-13 01:30;0.756
2024-05-13 01:40;0.792
2024-05-13 01:50;0.828
2024-05-13 02:00;0.9
2024-05-13 02:10;0.936
2024-05-13 02:20;0.936
2024-05-13 02:30;0.972
2024-05-13 02:40;1.008
2024-05-13 02:50;1.008
2024-05-13 03:00;1.044
2024-05-13 03:10;1.044
2024-05-13 03:20;1.08
2024-05-13 03:30;1.08
2024-05-13 03:40;1.116
2024-05-13 03:50;1.116
2024-05-13 04:00;1.116
2024-05-13 04:10;1.152
2024-05-13 04:20;1.152
2024-05-13 04:30;1.188
2024-05-13 04:40;1.188
2024-05-13 04:50;1.224
2024-05-13 05:00;1.224
2024-05-13 05:10;1.224
2024-05-13 05:20;1.26
2024-05-13 05:30;1.26
2024-05-13 05:40;1.26
2024-05-13 05:50;1.26
2024-05-13 06:00;1.296
2024-05-13 06:10;1.296
2024-05-13 06:20;1.296
2024-05-13 06:30;1.296
2024-05-13 06:40;1.26
2024-05-13 06:50;1.26
2024-05-13 07:00;1.26
2024-05-13 07:10;1.224
2024-05-13 07:20;1.188
2024-05-13 07:30;1.116
2024-05-13 07:40;1.044
2024-05-13 07:50;0.972
2024-05-13 08:00;0.864
2024-05-13 08:10;0.756
2024-05-13 08:20;0.648
2024-05-13 08:30;0.54
2024-05-13 08:40;0.468
2024-05-13 08:50;0.432
2024-05-13 09:00;0.36
2024-05-13 09:10;0.288
2024-05-13 09:20;0.252
2024-05-13 09:30;0.18
2024-05-13 09:40;0.144
2024-05-13 09:50;0.108
2024-05-13 10:00;0.072
2024-05-13 10:10;0.036
2024-05-13 10:20;0.036
2024-05-13 10:30;0
2024-05-13 10:40;0
2024-05-13 10:50;0
2024-05-13 11:00;-0.036
2024-05-13 11:10;-0.036
2024-05-13 11:20;-0.072
2024-05-13 11:30;-0.108
2024-05-13 11:40;-0.108
2024-05-13 11:50;-0.144
2024-05-13 12:00;-0.144
2024-05-13 12:10;-0.144
2024-05-13 12:20;-0.144
2024-05-13 12:30;-0.144
2024-05-13 12:40;-0.144
2024-05-13 12:50;-0.108
2024-05-13 13:00;-0.072
2024-05-13 13:10;0
2024-05-13 13:20;0.108
2024-05-13 13:30;0.18
2024-05-13 13:40;0.288
2024-05-13 13:50;0.396
2024-05-13 14:00;0.504
2024-05-13 14:10;0.576
2024-05-13 14:20;0.648
2024-05-13 14:30;0.72
2024-05-13 14:40;0.792
2024-05-13 14:50;0.864
2024-05-13 15:00;0.9
2024-05-13 15:10;0.972
2024-05-13 15:20;1.008
2024-05-13 15:30;1.008
2024-05-13 15:40;1.044
2024-05-13 15:50;1.08
2024-05-13 16:00;1.08
2024-05-13 16:10;1.116
2024-05-13 16:20;1.116
2024-05-13 16:30;1.116
2024-05-13 16:40;1.152
2024-05-13 16:50;1.152
2024-05-13 17:00;1.188
2024-05-13 17:10;1.188
2024-05-13 17:20;1.188
2024-05-13 17:30;1.224
2024-05-13 17:40;1.224
2024-05-13 17:50;1.224
2024-05-13 18:00;1.26
2024-05-13 18:10;1.26
2024-05-13 18:20;1.26
2024-05-13 18:30;1.26
2024-05-13 18:40;1.26
2024-05-13 18:50;1.296
2024-05-13 19:00;1.26
2024-05-13 19:10;1.26
2024-05-13 19:20;1.26
2024-05-13 19:30;1.26
2024-05-13 19:40;1.224
2024-05-13 19:50;1.188
2024-05-13 20:00;1.152
2024-05-13 20:10;1.116
2024-05-13 20:20;1.044
2024-05-13 20:30;0.972
2024-05-13 20:40;0.9
2024-05-13 20:50;0.828
2024-05-13 21:00;0.72
2024-05-13 21:10;0.648
2024-05-13 21:20;0.576
2024-05-13 21:30;0.504
2024-05-13 21:40;0.468
2024-05-13 21:50;0.396
2024-05-13 22:00;0.36
2024-05-13 22:10;0.324
2024-05-13 22:20;0.288
2024-05-13 22:30;0.288
2024-05-13 22:40;0.252
2024-05-13 22:50;0.252
2024-05-13 23:00;0.252
2024-05-13 23:10;0.252
2024-05-13 23:20;0.252
2024-05-13 23:30;0.252
2024-05-13 23:40;0.252
2024-05-13 23:50;0.252
2024-05-14 00:00;0.252
2024-05-14 00:10;0.288
2024-05-14 00:20;0.324
2024-05-14 00:30;0.324
2024-05-14 00:40;0.396
2024-05-14 00:50;0.432
2024-05-14 01:00;0.468
2024-05-14 01:10;0.54
2024-05-14 01:20;0.576
2024-05-14 01:30;0.648
2024-05-14 01:40;0.684
2024-05-14 01:50;0.756
2024-05-14 02:00;0.792
2024-05-14 02:10;0.828
2024-05-14 02:20;0.9
2024-05-14 02:30;0.936
2024-05-14 02:40;0.936
2024-05-14 02:50;0.972
2024-05-14 03:00;1.008
2024-05-14 03:10;1.044
2024-05-14 03:20;1.044
2024-05-14 03:30;1.08
2024-05-14 03:40;1.08
2024-05-14 03:50;1.116
2024-05-14 04:00;1.116
2024-05-14 04:10;1.116
2024-05-14 04:20;1.152
2024-05-14 04:30;1.152
2024-05-14 04:40;1.188
2024-05-14 04:50;1.188
2024-05-14 05:00;1.224
2024-05-14 05:10;1.224
2024-05-14 05:20;1.26
2024-05-14 05:30;1.26
2024-05-14 05:40;1.26
2024-05-14 05:50;1.296
2024-05-14 06:00;1.296
2024-05-14 06:10;1.296
2024-05-14 06:20;1.332
2024-05-14 06:30;1.332
2024-05-14 06:40;1.332
2024-05-14 06:50;1.332
2024-05-14 07:00;1.332
2024-05-14 07:10;1.332
2024-05-14 07:20;1.332
2024-05-14 07:30;1.296
2024-05-14 07:40;1.296
2024-05-14 07:50;1.26
2024-05-14 08:00;1.224
2024-05-14 08:10;1.188
2024-05-14 08:20;1.116
2024-05-14 08:30;1.044
2024-05-14 08:40;0.936
2024-05-14 08:50;0.828
2024-05-14 09:00;0.72
2024-05-14 09:10;0.648
2024-05-14 09:20;0.576
2024-05-14 09:30;0.504
2024-05-14 09:40;0.432
2024-05-14 09:50;0.396
2024-05-14 10:00;0.324
2024-05-14 10:10;0.288
2024-05-14 10:20;0.252
2024-05-14 10:30;0.216
2024-05-14 10:40;0.18
2024-05-14 10:50;0.18
2024-05-14 11:00;0.144
2024-05-14 11:10;0.144
2024-05-14 11:20;0.108
2024-05-14 11:30;0.108
2024-05-14 11:40;0.108
2024-05-14 11:50;0.072
2024-05-14 12:00;0.036
2024-05-14 12:10;0
2024-05-14 12:20;0
2024-05-14 12:30;-0.036
2024-05-14 12:40;-0.072
2024-05-14 12:50;-0.072
2024-05-14 13:00;-0.108
2024-05-14 13:10;-0.108
2024-05-14 13:20;-0.108
2024-05-14 13:30;-0.108
2024-05-14 13:40;-0.072
2024-05-14 13:50;-0.036
2024-05-14 14:00;0
2024-05-14 14:10;0.072
2024-05-14 14:20;0.18
2024-05-14 14:30;0.252
2024-05-14 14:40;0.324
2024-05-14 14:50;0.432
2024-05-14 15:00;0.504
2024-05-14 15:10;0.576
2024-05-14 15:20;0.648
2024-05-14 15:30;0.72
2024-05-14 15:40;0.792
2024-05-14 15:50;0.828
2024-05-14 16:00;0.864
2024-05-14 16:10;0.9
2024-05-14 16:20;0.936
2024-05-14 16:30;0.972
2024-05-14 16:40;1.008
2024-05-14 16:50;1.008
2024-05-14 17:00;1.044
2024-05-14 17:10;1.044
2024-05-14 17:20;1.08
2024-05-14 17:30;1.08
2024-05-14 17:40;1.116
2024-05-14 17:50;1.116
2024-05-14 18:00;1.152
2024-05-14 18:10;1.152
2024-05-14 18:20;1.188
2024-05-14 18:30;1.188
2024-05-14 18:40;1.188
2024-05-14 18:50;1.224
2024-05-14 19:00;1.224
2024-05-14 19:10;1.224
2024-05-14 19:20;1.224
2024-05-14 19:30;1.224
2024-05-14 19:40;1.224
2024-05-14 19:50;1.224
2024-05-14 20:00;1.224
2024-05-14 20:10;1.224
2024-05-14 20:20;1.224
2024-05-14 20:30;1.188
2024-05-14 20:40;1.152
2024-05-14 20:50;1.116
2024-05-14 21:00;1.08
2024-05-14 21:10;1.044
2024-05-14 21:20;0.972
2024-05-14 21:30;0.936
2024-05-14 21:40;0.864
2024-05-14 21:50;0.756
2024-05-14 22:00;0.684
2024-05-14 22:10;0.612
2024-05-14 22:20;0.576
2024-05-14 22:30;0.504
2024-05-14 22:40;0.468
2024-05-14 22:50;0.432
2024-05-14 23:00;0.396
2024-05-14 23:10;0.36
2024-05-14 23:20;0.324
2024-05-14 23:30;0.324
2024-05-14 23:40;0.288
2024-05-14 23:50;0.288
2024-05-15 00:00;0.288
2024-05-15 00:10;0.288
2024-05-15 00:20;0.288
2024-05-15 00:30;0.324
2024-05-15 00:40;0.324
2024-05-15 00:50;0.36
2024-05-15 01:00;0.36
2024-05-15 01:10;0.396
2024-05-15 01:20;0.432
2024-05-15 01:30;0.468
2024-05-15 01:40;0.504
2024-05-15 01:50;0.576
2024-05-15 02:00;0.612
2024-05-15 02:10;0.648
2024-05-15 02:20;0.72
2024-05-15 02:30;0.756
2024-05-15 02:40;0.792
2024-05-15 02:50;0.828
2024-05-15 03:00;0.864
2024-05-15 03:10;0.9
2024-05-15 03:20;0.936
2024-05-15 03:30;0.972
2024-05-15 03:40;0.972
2024-05-15 03:50;1.008
2024-05-15 04:00;1.008
2024-05-15 04:10;1.044
2024-05-15 04:20;1.044
2024-05-15 04:30;1.08
2024-05-15 04:40;1.08
2024-05-15 04:50;1.116
2024-05-15 05:00;1.116
2024-05-15 05:10;1.152
2024-05-15 05:20;1.152
2024-05-15 05:30;1.188
2024-05-15 05:40;1.188
2024-05-15 05:50;1.224
2024-05-15 06:00;1.224
2024-05-15 06:10;1.26
2024-05-15 06:20;1.26
2024-05-15 06:30;1.26
2024-05-15 06:40;1.296
2024-05-15 06:50;1.296
2024-05-15 07:00;1.296
2024-05-15 07:10;1.296
2024-05-15 07:20;1.332
2024-05-15 07:30;1.332
2024-05-15 07:40;1.332
2024-05-15 07:50;1.332
2024-05-15 08:00;1.332
2024-05-15 08:10;1.296
2024-05-15 08:20;1.296
2024-05-15 08:30;1.296
2024-05-15 08:40;1.26
2024-05-15 08:50;1.224
2024-05-15 09:00;1.188
2024-05-15 09:10;1.116
2024-05-15 09:20;1.044
2024-05-15 09:30;0.972
2024-05-15 09:40;0.9
2024-05-15 09:50;0.792
2024-05-15 10:00;0.72
2024-05-15 10:10;0.648
2024-05-15 10:20;0.576
2024-05-15 10:30;0.504
2024-05-15 10:40;0.468
2024-05-15 10:50;0.396
2024-05-15 11:00;0.36
2024-05-15 11:10;0.324
2024-05-15 11:20;0.288
2024-05-15 11:30;0.288
2024-05-15 11:40;0.252
2024-05-15 11:50;0.252
2024-05-15 12:00;0.252
2024-05-15 12:10;0.252
2024-05-15 12:20;0.216
2024-05-15 12:30;0.216
2024-05-15 12:40;0.216